Regional Weather Roundup
Issued by NWS Little Rock, AR

Home | Current Version | Previous Version | Graphics & Text | Print | Product List | Glossary On
Versions: 1 2 3 4 5 6 7 8 9 10 11 12 13 14 15 16 17 18 19 20 21 22 23 24 25 26 27 28 29 30 31 32 33 34 35 36 37 38 39 40 41 42 43 44 45 46 47 48 49 50
000
ASUS44 KLZK 241905
RWRLZK

WEATHER ROUNDUP FOR ARKANSAS
NATIONAL WEATHER SERVICE LITTLE ROCK AR
200 PM CDT SUN JUL 24 2016

NOTE: "FAIR" INDICATES FEW OR NO CLOUDS BELOW 12,000 FEET WITH NO
SIGNIFICANT WEATHER AND/OR OBSTRUCTIONS TO VISIBILITY.

ARZ001-003-010-029-242000-
NORTHWEST ARKANSAS

CITY           SKY/WX    TMP DP  RH WIND       PRES   REMARKS
FAYETTEVILLE   MOSUNNY   93  76  57 SW7       30.00F HX 105
FORT SMITH     SUNNY     97  71  42 VRB5      29.95F HX 104
HARRISON       MOSUNNY   94  75  54 W7        30.01F HX 105
BENTONVILLE    SUNNY     91  70  49 CALM      30.02F HX  97
ROGERS         SUNNY     92  75  57 CALM      30.02F HX 103
SILOAM SPGS    SUNNY     93  70  46 CALM      30.02S HX  99
HIGHFILL       SUNNY     94  75  54 VRB5      30.01F HX 105
SPRINGDALE     SUNNY     93  73  52 W6        30.03F HX 102
$$

ARZ004-005-016-242000-
NORTH CENTRAL ARKANSAS

CITY           SKY/WX    TMP DP  RH WIND       PRES   REMARKS
BATESVILLE     SUNNY     95  77  55 N5        29.96F HX 109
FLIPPIN        MOSUNNY   93  75  55 E3        29.95F HX 104
MTN HOME       MOSUNNY   92  77  61 CALM      29.97F HX 105
$$

ARZ040-041-242000-
WEST CENTRAL ARKANSAS

CITY           SKY/WX    TMP DP  RH WIND       PRES   REMARKS
MENA           CLOUDY    97  75  49 W3        29.99F HX 109
MOUNT IDA      SUNNY     93  74  53 CALM      29.97F HX 103
$$

ARZ009-017-025-026-028-242000-
NORTHEAST ARKANSAS

CITY           SKY/WX    TMP DP  RH WIND       PRES   REMARKS
CORNING          N/A     90  77  66 W6        29.98F HX 102
JONESBORO      PTSUNNY   90  74  59 W3        29.96F HX  99
NEWPORT        SUNNY     96  73  47 S3        29.97F HX 105
WALNUT RIDGE   CLOUDY    90  75  62 CALM      29.96F HX 100
BLYTHEVILLE    MOSUNNY   89  77  67 S5        29.98F HX 101
$$

ARZ022-023-033-042-044-242000-
CENTRAL ARKANSAS

CITY           SKY/WX    TMP DP  RH WIND       PRES   REMARKS
LITTLE ROCK    CLOUDY    94  73  50 CALM      29.96F HX 103
N LITTLE ROCK    N/A     92  75  58 CALM      29.93F HX 102
JACKSONVILLE   CLOUDY    93  78  61 SE8       29.95F HX 108
SEARCY         CLOUDY    88  78  72 SE8       29.98F HX 101
HOT SPRINGS    CLOUDY    89  73  59 S6        29.98F HX  97
RUSSELLVILLE   SUNNY     92  73  53 SW5       29.95F HX 100
$$

ARZ036-242000-
EAST ARKANSAS

CITY           SKY/WX    TMP DP  RH WIND       PRES   REMARKS
WEST MEMPHIS   PTSUNNY   85  75  72 S9        29.98S HX  93
$$

ARZ050-053-066-070-073-242000-
SOUTHWEST ARKANSAS

CITY           SKY/WX    TMP DP  RH WIND       PRES   REMARKS
CAMDEN         MOSUNNY   95  73  49 CALM      29.95F HX 105
TEXARKANA      MOSUNNY   94  76  55 VRB5      29.96F HX 106
EL DORADO      MOSUNNY   95  75  52 VRB7      29.96F HX 107
DE QUEEN       SUNNY     96  75  50 VRB3      29.94F HX 108
$$

ARZ056-057-069-242000-
SOUTHEAST ARKANSAS

CITY           SKY/WX    TMP DP  RH WIND       PRES   REMARKS
PINE BLUFF     CLOUDY    93  73  52 VRB3      29.96F HX 102
STUTTGART      MOSUNNY   90  73  58 S5        29.97F HX  98
MONTICELLO     MOSUNNY   96  75  50 VRB6      29.96F HX 108

$$





USA.gov is the U.S. government's official web portal to all federal, state and local government web resources and services.